When you browse on this site, cookies collect data to enhance your experience and personalize the content and advertising you see.
Visit our Privacy Policy to learn more. By continuing to use the site, you agree to this use of cookies and data.
  • In Deutschland
  • Länderverzeichnis
  • Für 7 Tage
  • Wassertemperatur
  • Satellitenkarten
  • Wetterkarte
  • Widgets
  • user-avatar
    Anmelden

    Stündliche Wetter Gozdy

    Heute, 21 Februar, Donnerstag

    Zeit Temperatur Niederschläge Wind Luftdruck Luftfeuchtigkeit
    00:00 +1°C° 0 mm 3 m/S 755 mmHg 91%
    01:00 +2°C° 0 mm 2 m/S 755 mmHg 94%
    02:00 +2°C° 0 mm 2 m/S 755 mmHg 94%
    03:00 +2°C° 0 mm 2 m/S 755 mmHg 95%
    04:00 +2°C° 0 mm 2 m/S 755 mmHg 95%
    05:00 +2°C° 0.1 mm 3 m/S 755 mmHg 95%
    06:00 +2°C° 0.1 mm 3 m/S 755 mmHg 96%
    07:00 +2°C° 0.1 mm 3 m/S 755 mmHg 96%
    08:00 +3°C° 0.2 mm 4 m/S 755 mmHg 95%
    09:00 +3°C° 0.2 mm 4 m/S 755 mmHg 94%
    10:00 +2°C° 0.2 mm 5 m/S 754 mmHg 93%
    11:00 +4°C° 1 mm 4 m/S 754 mmHg 93%
    12:00 +4°C° 1 mm 4 m/S 754 mmHg 92%
    13:00 +4°C° 1 mm 4 m/S 754 mmHg 92%
    14:00 +4°C° 0.9 mm 4 m/S 754 mmHg 92%
    15:00 +4°C° 0.9 mm 4 m/S 753 mmHg 92%
    16:00 +3°C° 0.9 mm 5 m/S 753 mmHg 93%
    17:00 +4°C° 0.9 mm 4 m/S 753 mmHg 93%
    18:00 +4°C° 0.9 mm 4 m/S 753 mmHg 94%
    19:00 +4°C° 0.9 mm 4 m/S 753 mmHg 95%
    20:00 +4°C° 0.8 mm 4 m/S 753 mmHg 95%
    21:00 +4°C° 0.8 mm 4 m/S 753 mmHg 95%
    22:00 +4°C° 0.8 mm 4 m/S 753 mmHg 96%
    23:00 +1°C° 0.4 mm 5 m/S 754 mmHg 91%

    Morgen, 22 Februar, Freitag

    Zeit Temperatur Niederschläge Wind Luftdruck Luftfeuchtigkeit
    00:00 -2°C° 0.4 mm 6 m/S 754 mmHg 87%
    01:00 -3°C° 0.4 mm 7 m/S 755 mmHg 83%
    02:00 -4°C° 0 mm 7 m/S 756 mmHg 78%
    03:00 -4°C° 0 mm 7 m/S 758 mmHg 72%
    04:00 -5°C° 0 mm 6 m/S 759 mmHg 67%
    05:00 -5°C° 0 mm 6 m/S 760 mmHg 64%
    06:00 -5°C° 0 mm 6 m/S 761 mmHg 62%
    07:00 -6°C° 0 mm 6 m/S 763 mmHg 60%
    08:00 -6°C° 0 mm 6 m/S 764 mmHg 54%
    09:00 -5°C° 0 mm 6 m/S 765 mmHg 49%
    10:00 -5°C° 0 mm 5 m/S 766 mmHg 43%
    11:00 -5°C° 0 mm 5 m/S 766 mmHg 41%
    12:00 -4°C° 0 mm 5 m/S 767 mmHg 40%
    13:00 -3°C° 0 mm 4 m/S 768 mmHg 38%
    14:00 -3°C° 0 mm 4 m/S 768 mmHg 39%
    15:00 -3°C° 0 mm 4 m/S 768 mmHg 40%
    16:00 -3°C° 0 mm 4 m/S 769 mmHg 41%
    17:00 -3°C° 0 mm 4 m/S 769 mmHg 44%
    18:00 -4°C° 0 mm 4 m/S 769 mmHg 46%
    19:00 -5°C° 0 mm 3 m/S 770 mmHg 49%
    20:00 -5°C° 0 mm 3 m/S 770 mmHg 48%
    21:00 -5°C° 0 mm 3 m/S 771 mmHg 46%
    22:00 -5°C° 0 mm 3 m/S 771 mmHg 45%
    23:00 -4°C° 0 mm 2 m/S 771 mmHg 45%

    übermorgen, 23 Februar, Samstag

    Zeit Temperatur Niederschläge Wind Luftdruck Luftfeuchtigkeit
    00:00 -4°C° 0 mm 2 m/S 772 mmHg 44%
    01:00 -4°C° 0 mm 2 m/S 772 mmHg 44%
    02:00 -2°C° 0 mm 1 m/S 772 mmHg 45%
    03:00 -2°C° 0 mm 1 m/S 771 mmHg 46%
    04:00 -2°C° 0 mm 1 m/S 771 mmHg 47%
    05:00 -2°C° 0 mm 1 m/S 771 mmHg 48%
    06:00 -2°C° 0 mm 1 m/S 772 mmHg 48%
    07:00 -3°C° 0 mm 1 m/S 772 mmHg 48%
    08:00 -2°C° 0 mm 1 m/S 772 mmHg 44%
    09:00 -1°C° 0 mm 1 m/S 772 mmHg 39%
    10:00 -1°C° 0 mm 1 m/S 772 mmHg 35%
    11:00 0°C° 0 mm 1 m/S 772 mmHg 33%
    12:00 +1°C° 0 mm 1 m/S 772 mmHg 30%
    13:00 +1°C° 0 mm 1 m/S 771 mmHg 28%
    14:00 +1°C° 0 mm 1 m/S 771 mmHg 29%
    15:00 +1°C° 0 mm 1 m/S 771 mmHg 31%
    16:00 +1°C° 0 mm 1 m/S 771 mmHg 32%
    17:00 +1°C° 0 mm 1 m/S 770 mmHg 35%
    18:00 0°C° 0 mm 1 m/S 770 mmHg 37%
    19:00 0°C° 0 mm 1 m/S 770 mmHg 40%
    20:00 -2°C° 0 mm 2 m/S 770 mmHg 41%
    21:00 -2°C° 0 mm 2 m/S 769 mmHg 42%
    22:00 -2°C° 0 mm 2 m/S 769 mmHg 42%
    23:00 -2°C° 0 mm 2 m/S 769 mmHg 44%

    24 Februar, Sonntag

    Zeit Temperatur Niederschläge Wind Luftdruck Luftfeuchtigkeit
    00:00 -2°C° 0 mm 2 m/S 769 mmHg 45%
    01:00 -4°C° 0 mm 3 m/S 768 mmHg 46%
    02:00 -2°C° 0 mm 3 m/S 768 mmHg 45%
    03:00 -2°C° 0 mm 3 m/S 768 mmHg 45%
    04:00 -2°C° 0 mm 3 m/S 767 mmHg 44%
    05:00 -2°C° 0 mm 3 m/S 767 mmHg 45%
    06:00 -2°C° 0 mm 3 m/S 767 mmHg 46%
    07:00 -2°C° 0 mm 3 m/S 766 mmHg 47%
    08:00 -1°C° 0 mm 3 m/S 766 mmHg 46%
    09:00 0°C° 0 mm 3 m/S 766 mmHg 46%
    10:00 0°C° 0 mm 3 m/S 766 mmHg 45%
    11:00 +1°C° 0 mm 3 m/S 766 mmHg 49%
    12:00 +3°C° 0 mm 2 m/S 766 mmHg 52%
    13:00 +3°C° 0 mm 2 m/S 766 mmHg 56%
    14:00 +3°C° 0 mm 2 m/S 766 mmHg 62%
    15:00 +3°C° 0 mm 2 m/S 765 mmHg 68%
    16:00 +3°C° 0 mm 2 m/S 765 mmHg 73%
    17:00 +3°C° 0 mm 2 m/S 765 mmHg 78%
    18:00 +2°C° 0 mm 2 m/S 765 mmHg 83%
    19:00 +1°C° 0 mm 2 m/S 765 mmHg 88%
    20:00 +1°C° 0 mm 2 m/S 765 mmHg 89%
    21:00 +1°C° 0 mm 2 m/S 765 mmHg 91%
    22:00 +1°C° 0 mm 2 m/S 765 mmHg 92%
    23:00 +1°C° 0 mm 2 m/S 765 mmHg 92%

    25 Februar, Montag

    Zeit Temperatur Niederschläge Wind Luftdruck Luftfeuchtigkeit
    00:00 +1°C° 0 mm 2 m/S 765 mmHg 93%
    01:00 -1°C° 0 mm 2 m/S 765 mmHg 93%
    02:00 -1°C° 0 mm 2 m/S 765 mmHg 93%
    03:00 -1°C° 0 mm 2 m/S 765 mmHg 93%
    04:00 -1°C° 0 mm 2 m/S 765 mmHg 94%
    05:00 -1°C° 0 mm 2 m/S 765 mmHg 95%
    06:00 -1°C° 0 mm 2 m/S 765 mmHg 95%
    07:00 -1°C° 0 mm 2 m/S 766 mmHg 96%
    08:00 0°C° 0 mm 3 m/S 766 mmHg 92%
    09:00 +1°C° 0 mm 3 m/S 767 mmHg 89%
    10:00 +2°C° 0 mm 3 m/S 767 mmHg 85%
    11:00 +3°C° 0 mm 3 m/S 767 mmHg 80%
    12:00 +5°C° 0 mm 2 m/S 767 mmHg 74%
    13:00 +6°C° 0 mm 2 m/S 767 mmHg 69%
    14:00 +6°C° 0 mm 2 m/S 767 mmHg 71%
    15:00 +5°C° 0 mm 2 m/S 767 mmHg 72%
    16:00 +5°C° 0 mm 2 m/S 766 mmHg 74%
    17:00 +4°C° 0 mm 2 m/S 766 mmHg 77%
    18:00 +3°C° 0 mm 2 m/S 766 mmHg 80%
    19:00 +2°C° 0 mm 2 m/S 767 mmHg 83%
    20:00 +3°C° 0 mm 1 m/S 766 mmHg 83%
    21:00 +3°C° 0 mm 1 m/S 766 mmHg 83%
    22:00 +2°C° 0 mm 1 m/S 766 mmHg 84%
    23:00 +2°C° 0 mm 1 m/S 766 mmHg 84%

    26 Februar, Dienstag

    Zeit Temperatur Niederschläge Wind Luftdruck Luftfeuchtigkeit
    00:00 +1°C° 0 mm 2 m/S 765 mmHg 85%
    01:00 +1°C° 0 mm 2 m/S 765 mmHg 85%
    02:00 +1°C° 0 mm 2 m/S 764 mmHg 86%
    03:00 0°C° 0 mm 3 m/S 763 mmHg 87%
    04:00 0°C° 0 mm 3 m/S 763 mmHg 88%
    05:00 0°C° 0 mm 3 m/S 762 mmHg 89%
    06:00 -1°C° 0 mm 4 m/S 762 mmHg 91%
    07:00 0°C° 0 mm 4 m/S 761 mmHg 93%
    08:00 +1°C° 0 mm 4 m/S 761 mmHg 87%
    09:00 +2°C° 0 mm 5 m/S 760 mmHg 82%
    10:00 +3°C° 0 mm 5 m/S 760 mmHg 76%
    11:00 +5°C° 0 mm 5 m/S 760 mmHg 72%
    12:00 +6°C° 0 mm 5 m/S 759 mmHg 68%
    13:00 +7°C° 0 mm 6 m/S 759 mmHg 64%
    14:00 +7°C° 0 mm 5 m/S 759 mmHg 66%
    15:00 +7°C° 0 mm 5 m/S 758 mmHg 68%
    16:00 +7°C° 0 mm 4 m/S 758 mmHg 70%
    17:00 +6°C° 0 mm 4 m/S 758 mmHg 75%
    18:00 +5°C° 0 mm 4 m/S 759 mmHg 80%
    19:00 +3°C° 0 mm 4 m/S 759 mmHg 85%
    20:00 +3°C° 0 mm 4 m/S 759 mmHg 87%
    21:00 +1°C° 0 mm 4 m/S 759 mmHg 90%
    22:00 0°C° 0 mm 4 m/S 759 mmHg 92%
    23:00 0°C° 0 mm 4 m/S 759 mmHg 92%
    Mehr zeigen